Cumberland, WI

4:10 AM CDT on May 25, 2017 (GMT -0500)
Cumberland Municipal

Weather History for KUBE - October, 2013

Change the Weather History Date:

Saturday, October 5, 2013

  Actual Average (KRPD) Record (KRPD)
Temperature  
Mean Temperature 54 °F -  
Max Temperature 59 °F 59 °F 82 °F (2011)
Min Temperature 50 °F 38 °F 26 °F (2004)
Degree Days  
Heating Degree Days 10    
Growing Degree Days 4 (Base 50)    
Moisture  
Dew Point 53 °F    
Average Humidity 96    
Maximum Humidity 100    
Minimum Humidity 87    
Precipitation  
Precipitation 1.20 in - - ()
Sea Level Pressure  
Sea Level Pressure 29.82 in    
Wind  
Wind Speed 7 mph (East)    
Max Wind Speed 16 mph    
Max Gust Speed 28 mph    
Visibility 7 miles    
Events Rain , Thunderstorm    
Averages and records for this station are not official NWS values.
T = Trace of Precipitation, MM = Missing Value Source: NWS Daily Summary

Daily Weather History Graph

Daily Weather History Graph

Search for Another Location

Airport or City:

Trip Planner

Search our weather history database for the weather conditions in past years. The results will help you decide how hot, cold, wet, or windy it might be!

Date:

Astronomy

Oct. 05, 2013 Rise Set
Actual Time 7:11 AM CDT 6:40 PM CDT
Civil Twilight 6:41 AM CDT 7:09 PM CDT
Nautical Twilight 6:07 AM CDT 7:43 PM CDT
Astronomical Twilight 5:32 AM CDT 8:18 PM CDT
Moon 7:55 AM CDT (10/5) 6:54 PM CDT (10/5)
Length of Visible Light 12h 27m
Length of Day
11h 28m
New Moon, 1% of the Moon is Illuminated
Oct 5
New Moon
Oct 11
First Quarter
Oct 18
Full
Oct 26
Last Quarter
Nov 3
New

Hourly Weather History & Observations

Time (CDT) Temp. Dew Point Humidity Pressure Visibility Wind Dir Wind Speed Gust Speed Precip Events Conditions
12:15 AM 53.6 °F 51.8 °F 94% 29.93 in 10.0 mi East 10.4 mph 23.0 mph N/A Rain Light Rain
12:35 AM 53.6 °F 51.8 °F 94% 29.94 in 10.0 mi East 8.1 mph 18.4 mph 0.01 in Rain , Thunderstorm Light Thunderstorms and Rain
12:55 AM 53.6 °F 51.8 °F 94% 29.94 in 10.0 mi East 10.4 mph - 0.02 in Rain , Thunderstorm Light Thunderstorms and Rain
1:15 AM 53.6 °F 51.8 °F 94% 29.95 in 7.0 mi East 6.9 mph - 0.02 in Rain , Thunderstorm Rain
1:35 AM 53.6 °F 51.8 °F 94% 29.95 in 5.0 mi East 5.8 mph - 0.09 in Rain Heavy Rain
1:55 AM 53.6 °F 51.8 °F 94% 29.94 in 3.0 mi East 6.9 mph - 0.45 in Rain Heavy Rain
2:15 AM 51.8 °F 51.8 °F 100% 29.92 in 7.0 mi East 10.4 mph - 0.04 in Rain , Thunderstorm Thunderstorms and Rain
2:35 AM 51.8 °F 51.8 °F 100% 29.87 in 7.0 mi East 16.1 mph 21.9 mph 0.07 in Rain Rain
2:55 AM 51.8 °F 51.8 °F 100% 29.82 in 10.0 mi East 16.1 mph 27.6 mph 0.07 in Rain Light Rain
3:15 AM 51.8 °F 51.8 °F 100% 29.84 in 10.0 mi East 9.2 mph 20.7 mph N/A   Overcast
3:35 AM 53.6 °F 51.8 °F 94% 29.84 in 10.0 mi East 6.9 mph - N/A   Overcast
3:55 AM 53.6 °F 51.8 °F 94% 29.85 in 10.0 mi East 5.8 mph - N/A   Overcast
4:15 AM 53.6 °F 51.8 °F 94% 29.88 in 10.0 mi Calm Calm - N/A   Overcast
4:35 AM 53.6 °F 53.6 °F 100% 29.82 in 10.0 mi ENE 11.5 mph 16.1 mph N/A Rain Light Rain
4:55 AM 53.6 °F 53.6 °F 100% 29.86 in 10.0 mi ENE 4.6 mph - N/A   Overcast
5:15 AM 53.6 °F 53.6 °F 100% 29.86 in 10.0 mi ENE 5.8 mph - N/A   Overcast
5:35 AM 53.6 °F 53.6 °F 100% 29.86 in 10.0 mi NE 4.6 mph - N/A   Light Drizzle
5:55 AM 53.6 °F 53.6 °F 100% 29.86 in 10.0 mi NE 5.8 mph - N/A   Overcast
6:15 AM 53.6 °F 53.6 °F 100% 29.88 in 10.0 mi NE 4.6 mph - N/A   Light Drizzle
6:35 AM 53.6 °F 53.6 °F 100% 29.87 in 10.0 mi NE 5.8 mph - 0.01 in Rain Light Rain
6:55 AM 53.6 °F 53.6 °F 100% 29.86 in 10.0 mi NE 5.8 mph - 0.01 in Rain Light Rain
7:15 AM 53.6 °F 53.6 °F 100% 29.86 in 10.0 mi ENE 5.8 mph - N/A   Light Drizzle
7:35 AM 53.6 °F 53.6 °F 100% 29.86 in 10.0 mi NE 4.6 mph - 0.01 in   Light Drizzle
7:55 AM 53.6 °F 53.6 °F 100% 29.87 in 10.0 mi East 3.5 mph - 0.01 in Rain Light Rain
8:15 AM 55.4 °F 53.6 °F 94% 29.86 in 10.0 mi East 6.9 mph - N/A   Overcast
8:35 AM 55.4 °F 53.6 °F 94% 29.86 in 10.0 mi East 5.8 mph - N/A   Overcast
8:55 AM 55.4 °F 53.6 °F 94% 29.86 in 10.0 mi East 8.1 mph - N/A   Overcast
9:15 AM 55.4 °F 53.6 °F 94% 29.86 in 10.0 mi East 8.1 mph - N/A   Overcast
9:35 AM 55.4 °F 53.6 °F 94% 29.86 in 10.0 mi East 8.1 mph - N/A   Light Drizzle
9:55 AM 55.4 °F 53.6 °F 94% 29.86 in 7.0 mi ESE 5.8 mph 17.3 mph 0.02 in Rain Rain
10:15 AM 55.4 °F 55.4 °F 100% 29.87 in 10.0 mi East 5.8 mph - N/A   Overcast
10:35 AM 55.4 °F 55.4 °F 100% 29.87 in 10.0 mi East 5.8 mph - N/A   Overcast
10:55 AM 55.4 °F 55.4 °F 100% 29.86 in 10.0 mi East 5.8 mph - N/A   Overcast
11:15 AM 55.4 °F 55.4 °F 100% 29.87 in 3.0 mi East 4.6 mph - N/A   Overcast
11:35 AM 55.4 °F 55.4 °F 100% 29.86 in 1.5 mi East 5.8 mph - N/A   Overcast
11:55 AM 55.4 °F 55.4 °F 100% 29.86 in 1.8 mi East 6.9 mph - N/A Rain Light Rain
12:15 PM 55.4 °F 55.4 °F 100% 29.86 in 1.5 mi East 6.9 mph - N/A   Drizzle
12:35 PM 57.2 °F 55.4 °F 94% 29.85 in 1.2 mi East 4.6 mph - N/A   Light Drizzle
12:55 PM 57.2 °F 55.4 °F 94% 29.84 in 1.5 mi East 5.8 mph - N/A   Overcast
1:15 PM 57.2 °F 55.4 °F 94% 29.83 in 1.5 mi East 6.9 mph - N/A   Overcast
1:35 PM 57.2 °F 55.4 °F 94% 29.83 in 1.5 mi East 9.2 mph - N/A   Overcast
1:55 PM 57.2 °F 55.4 °F 94% 29.82 in 1.2 mi East 6.9 mph - N/A Rain Rain
2:15 PM 59.0 °F 57.2 °F 94% 29.80 in 2.0 mi East 6.9 mph - N/A   Overcast
2:35 PM 59.0 °F 57.2 °F 94% 29.79 in 4.0 mi East 8.1 mph - N/A   Overcast
2:55 PM 59.0 °F 57.2 °F 94% 29.79 in 7.0 mi East 5.8 mph - N/A   Overcast
3:15 PM 59.0 °F 57.2 °F 94% 29.78 in 5.0 mi ESE 3.5 mph - N/A Rain Light Rain
3:35 PM 59.0 °F 57.2 °F 94% 29.78 in 2.5 mi East 4.6 mph - N/A   Drizzle
3:55 PM 59.0 °F 57.2 °F 94% 29.78 in 2.0 mi East 3.5 mph - 0.01 in   Drizzle
4:15 PM 59.0 °F 57.2 °F 94% 29.77 in 2.5 mi Calm Calm - N/A   Heavy Drizzle
4:35 PM 59.0 °F 57.2 °F 94% 29.76 in 2.0 mi Calm Calm - 0.01 in   Heavy Drizzle
4:55 PM 59.0 °F 57.2 °F 94% 29.75 in 4.0 mi ENE 4.6 mph - 0.02 in   Overcast
5:15 PM 57.2 °F 55.4 °F 94% 29.74 in 5.0 mi NE 5.8 mph - N/A   Drizzle
5:35 PM 57.2 °F 55.4 °F 94% 29.73 in 7.0 mi ENE 4.6 mph - 0.01 in   Drizzle
5:55 PM 57.2 °F 55.4 °F 94% 29.72 in 3.0 mi Calm Calm - 0.02 in Rain Heavy Rain
6:15 PM 57.2 °F 55.4 °F 94% 29.73 in 1.8 mi WNW 4.6 mph - 0.11 in Rain Heavy Rain
6:35 PM 57.2 °F 55.4 °F 94% 29.72 in 2.0 mi NW 10.4 mph - 0.28 in Rain Heavy Rain
6:55 PM 55.4 °F 53.6 °F 94% 29.74 in 5.0 mi West 8.1 mph - 0.32 in Rain Heavy Rain
7:15 PM 55.4 °F 53.6 °F 94% 29.74 in 7.0 mi West 6.9 mph - 0.04 in Rain Rain
7:35 PM 53.6 °F 50.0 °F 88% 29.78 in 10.0 mi SW 16.1 mph 21.9 mph 0.05 in Rain Rain
7:55 PM 51.8 °F 48.2 °F 88% 29.75 in 7.0 mi West 11.5 mph - 0.08 in Rain Light Rain
8:15 PM 51.8 °F 48.2 °F 88% 29.78 in 7.0 mi WSW 8.1 mph - 0.05 in Rain , Thunderstorm Heavy Thunderstorms and Rain
8:35 PM 50.0 °F 46.4 °F 87% 29.76 in 5.0 mi West 8.1 mph - 0.14 in Rain Rain
8:55 PM 50.0 °F 46.4 °F 87% 29.74 in 7.0 mi North 5.8 mph - 0.16 in Rain Light Rain
9:15 PM 50.0 °F 48.2 °F 94% 29.72 in 10.0 mi North 12.7 mph - N/A Rain Rain
9:35 PM 50.0 °F 48.2 °F 94% 29.72 in 10.0 mi NNW 10.4 mph - N/A   Overcast
9:55 PM 50.0 °F 48.2 °F 94% 29.75 in 10.0 mi SW 8.1 mph - 0.01 in   Overcast
10:15 PM 50.0 °F 48.2 °F 94% 29.76 in 10.0 mi SW 4.6 mph - N/A   Overcast
10:35 PM 50.0 °F 48.2 °F 94% 29.76 in 10.0 mi SW 5.8 mph - N/A   Overcast
10:55 PM 50.0 °F 48.2 °F 94% 29.75 in 10.0 mi WSW 5.8 mph - N/A   Overcast
11:15 PM 50.0 °F 50.0 °F 100% 29.74 in 10.0 mi WSW 4.6 mph - N/A   Overcast
11:35 PM 50.0 °F 50.0 °F 100% 29.74 in 7.0 mi WSW 5.8 mph - N/A   Overcast
11:55 PM 50.0 °F 50.0 °F 100% 29.74 in 3.0 mi WSW 4.6 mph - N/A   Overcast